Terug naar catalogus

STARLINK-5961

ActiefCommunicatieVLEO
NORAD 56914·PAYLOAD·🇺🇸 United States

Gelanceerd Jun 12, 2023 vanaf Cape Canaveral Space Force Station

Loading…

Volgende Passages (komende 24 uur)

TLE

VersSource: CelesTrak SupGP

Epoch: Sep 15, 2026, 02:02 UTC

1 56914C 23083AQ  26258.08520833 -.00005243  00000+0 -18987-3 0  2582
2 56914  43.0006  80.6784 0001900 261.0836 266.8838 15.27585711    13

Volg STARLINK-5961 in realtime met AllMySat

Download on the App Store